Flag for United Kingdom

Past Weather in Stirling, Scotland, United Kingdom — Yesterday and Last 2 Weeks

Now
60 °F

Cool.


Feels Like: 60 °F
Forecast: 64 / 49 °F
Wind: 5 mph from Northwest

Location: Strathallan

Current Time: Jul 9, 2020 at 12:14:51 pm

Latest Report: Jul 9, 2020 at 11:00 am


Visibility: 22 mi

Pressure: 29.96 "Hg

Humidity: 71%

Dew Point: 51 °F

Location of StirlingLocation

Past Weather in Stirling — Graph

°F

Stirling Temperature Yesterday

Maximum temperature yesterday: 59 °F (at 4:00 pm)
Minimum temperature yesterday: 50 °F (at 5:00 am)
Average temperature yesterday: 54 °F

High & Low Weather Summary for the Past Weeks

 TemperatureHumidityPressure
High73 °F (Jun 25, 3:00 pm)100% (Jul 4, 6:00 am)30.19 "Hg (Jul 4, 6:00 am)
Low44 °F (Jul 4, 5:00 am)52% (Jul 6, 5:00 pm)29.21 "Hg (Jun 28, 5:00 am)
Average57 °F85%29.70 "Hg
* Reported Jun 24 12:00 pm — Jul 9 11:00 am, Stirling. Weather by CustomWeather, © 2020

Note: Actual official high and low records may vary slightly from our data, if they occured in-between our weather recording intervals... More about our weather records

Stirling Weather History for the Previous 24 Hours

Scroll right to see more
 ConditionsComfort  
Time TempWeatherWind HumidityBarometerVisibility
11:00 am
Thu, Jul 9
60 °FCool.5 mph71%29.96 "Hg22 mi
10:00 am59 °FCool.2 mph74%29.96 "Hg28 mi
9:00 am55 °FCool.2 mph86%29.96 "Hg22 mi
8:00 am53 °FCool.2 mph88%29.96 "Hg25 mi
7:00 am53 °FCool.2 mph90%29.94 "Hg19 mi
6:00 am51 °FCool.1 mph93%29.95 "Hg19 mi
5:00 am51 °FCool.1 mph93%29.94 "Hg22 mi
4:00 am51 °FCool.2 mph92%29.94 "Hg22 mi
3:00 am51 °FCool.2 mph92%29.95 "Hg19 mi
2:00 am51 °FCool.5 mph91%29.95 "Hg25 mi
1:00 am51 °FCool.3 mph91%29.96 "Hg25 mi
12:00 am52 °FCool.3 mph89%29.96 "Hg31 mi
11:00 pm
Wed, Jul 8
53 °FCool.3 mph90%29.96 "Hg31 mi
10:00 pm53 °FCool.3 mph88%29.96 "Hg28 mi
9:00 pm55 °FCool.5 mph86%29.96 "Hg25 mi
8:00 pm56 °FCool.3 mph78%29.96 "Hg31 mi
7:00 pm59 °FCool.5 mph71%29.97 "Hg22 mi
6:00 pm58 °FCool.5 mph74%29.98 "Hg31 mi
5:00 pm58 °FCool.8 mph72%29.98 "Hg22 mi
4:00 pm59 °FCool.6 mph71%30.00 "Hg25 mi
3:00 pm58 °FCool.3 mph71%30.01 "Hg25 mi
2:00 pm57 °FCool.7 mph73%30.01 "Hg28 mi
1:00 pm56 °FCool.6 mph77%30.02 "Hg28 mi
12:00 pm55 °FCool.5 mph80%30.03 "Hg19 mi
Weather by CustomWeather, © 2020

See weather overview